SIA412 PTPN-PKMJ

Flight info

Callsign SIA412
Flight time N/A
Altitude 41000
Route PNI STEFF MAJ
Aircraft A359/H-SDE2E3GHIJ3J4J5LM1ORWXY/LB1D1

Departure

Time 2026-04-30 10:02
Airport Pohnpei International Airport (PTPN)

Arrival

Time N/A
Airport Marshall Islands International Airport (PKMJ)
Time Latitude Longitude Altitude Speed Heading
2026-04-30 09:52 6.98207 158.20395 24 ft 0 kts 178°
2026-04-30 09:57 6.98214 158.20394 25 ft 2 kts 182°
2026-04-30 09:58 6.98227 158.20396 25 ft 2 kts 213°
2026-04-30 09:58 6.98238 158.20405 27 ft 2 kts 243°
2026-04-30 09:58 6.98241 158.20411 27 ft 0 kts 256°
2026-04-30 09:59 6.98240 158.20408 27 ft 3 kts 256°
2026-04-30 10:00 6.98279 158.20357 28 ft 6 kts 345°
2026-04-30 10:00 6.98342 158.20350 24 ft 12 kts 358°
2026-04-30 10:01 6.98496 158.20383 26 ft 10 kts 68°
2026-04-30 10:01 6.98504 158.20525 28 ft 54 kts 93°
2026-04-30 10:01 6.98488 158.21248 23 ft 150 kts 88°
2026-04-30 10:02 6.98498 158.23606 2008 ft 175 kts 90°
2026-04-30 10:02 6.98494 158.24893 2507 ft 194 kts 91°
2026-04-30 10:02 6.98495 158.26328 2749 ft 215 kts 90°
2026-04-30 10:02 6.98275 158.27875 3007 ft 233 kts 105°
2026-04-30 10:03 6.98040 158.29554 3312 ft 250 kts 94°
2026-04-30 10:03 6.98005 158.31334 3816 ft 257 kts 90°
2026-04-30 10:03 6.98055 158.33150 4428 ft 261 kts 88°
2026-04-30 10:03 6.98128 158.34984 5035 ft 264 kts 88°
2026-04-30 10:04 6.98197 158.36849 5598 ft 268 kts 88°
2026-04-30 10:04 6.98248 158.38739 6179 ft 272 kts 89°
2026-04-30 10:04 6.98283 158.40650 6718 ft 274 kts 89°
2026-04-30 10:04 6.98308 158.42572 7274 ft 276 kts 89°
2026-04-30 10:05 6.98324 158.44519 7798 ft 280 kts 90°
2026-04-30 10:05 6.98333 158.45822 8131 ft 282 kts 90°
2026-04-30 10:05 6.98345 158.47812 8671 ft 285 kts 90°
2026-04-30 10:05 6.98360 158.50467 9427 ft 287 kts 89°
2026-04-30 10:06 6.98373 158.52493 9923 ft 292 kts 89°
2026-04-30 10:06 6.98383 158.53888 10153 ft 299 kts 89°
2026-04-30 10:06 6.98399 158.56027 10365 ft 312 kts 89°
2026-04-30 10:06 6.98415 158.58258 10569 ft 325 kts 89°
2026-04-30 10:07 6.98433 158.60581 10763 ft 338 kts 89°
2026-04-30 10:07 6.98451 158.62955 10945 ft 349 kts 89°
2026-04-30 10:07 6.98469 158.65439 11122 ft 360 kts 89°
2026-04-30 10:07 6.98487 158.67987 11348 ft 368 kts 89°
2026-04-30 10:08 6.98506 158.70574 11679 ft 371 kts 89°
2026-04-30 10:08 6.98524 158.73186 12038 ft 374 kts 89°
2026-04-30 10:08 6.98543 158.75814 12397 ft 377 kts 90°
2026-04-30 10:08 6.98561 158.78466 12755 ft 380 kts 90°
2026-04-30 10:09 6.98580 158.81137 13109 ft 382 kts 90°
2026-04-30 10:09 6.98598 158.83820 13468 ft 384 kts 90°
2026-04-30 10:09 6.98617 158.86525 13777 ft 387 kts 90°
2026-04-30 10:09 6.98635 158.89248 14056 ft 390 kts 90°
2026-04-30 10:10 6.98654 158.91983 14389 ft 392 kts 90°
2026-04-30 10:10 6.98672 158.94730 14690 ft 394 kts 90°
2026-04-30 10:10 6.98691 158.97495 15009 ft 396 kts 90°
2026-04-30 10:10 6.98709 159.00270 15335 ft 397 kts 90°
2026-04-30 10:11 6.98727 159.03066 15642 ft 400 kts 90°
2026-04-30 10:11 6.98745 159.05870 15951 ft 401 kts 90°
2026-04-30 10:11 6.98763 159.08686 16280 ft 403 kts 90°
2026-04-30 10:11 6.98781 159.11482 16567 ft 406 kts 90°
2026-04-30 10:12 6.98798 159.14339 16900 ft 407 kts 90°
2026-04-30 10:12 6.98816 159.17197 17198 ft 409 kts 90°
2026-04-30 10:12 6.98834 159.20074 17482 ft 412 kts 90°
2026-04-30 10:12 6.98852 159.22960 17816 ft 413 kts 90°
2026-04-30 10:13 6.98869 159.25856 18090 ft 416 kts 90°
2026-04-30 10:13 6.98886 159.28772 18369 ft 417 kts 90°
2026-04-30 10:13 6.98904 159.31693 18647 ft 418 kts 90°
2026-04-30 10:13 6.98921 159.34631 18889 ft 420 kts 90°
2026-04-30 10:14 6.98938 159.37573 19172 ft 421 kts 90°
2026-04-30 10:14 6.98955 159.40521 19429 ft 422 kts 90°
2026-04-30 10:14 6.98988 159.46422 19951 ft 425 kts 90°
2026-04-30 10:15 6.99004 159.49403 20190 ft 427 kts 90°
2026-04-30 10:15 6.99021 159.52398 20456 ft 428 kts 90°
2026-04-30 10:15 6.99037 159.55394 20724 ft 429 kts 90°
2026-04-30 10:15 6.99053 159.58406 20972 ft 430 kts 90°
2026-04-30 10:16 6.99069 159.61424 21227 ft 432 kts 90°
2026-04-30 10:16 6.99084 159.64450 21474 ft 433 kts 90°
2026-04-30 10:16 6.99100 159.67492 21721 ft 434 kts 90°
2026-04-30 10:17 6.99131 159.73598 22183 ft 437 kts 90°
2026-04-30 10:17 6.99161 159.79690 22667 ft 440 kts 90°
2026-04-30 10:17 6.99176 159.82775 22898 ft 441 kts 90°
2026-04-30 10:18 6.99191 159.85870 23122 ft 442 kts 90°
2026-04-30 10:18 6.99205 159.88967 23390 ft 443 kts 90°
2026-04-30 10:18 6.99219 159.92075 23579 ft 445 kts 90°
2026-04-30 10:19 6.99248 159.98309 23980 ft 446 kts 90°
2026-04-30 10:19 6.99261 160.01446 24159 ft 447 kts 90°
2026-04-30 10:19 6.99275 160.04582 24375 ft 448 kts 90°
2026-04-30 10:19 6.99289 160.07721 24547 ft 449 kts 90°
2026-04-30 10:20 6.99302 160.10875 24760 ft 450 kts 90°
2026-04-30 10:20 6.99328 160.17177 25124 ft 452 kts 90°
2026-04-30 10:20 6.99341 160.20339 25363 ft 452 kts 90°
2026-04-30 10:21 6.99353 160.23506 25519 ft 454 kts 90°
2026-04-30 10:21 6.99366 160.26683 25729 ft 454 kts 90°
2026-04-30 10:21 6.99378 160.29861 25947 ft 455 kts 90°
2026-04-30 10:21 6.99389 160.33017 26086 ft 457 kts 90°
2026-04-30 10:22 6.99401 160.36251 26349 ft 456 kts 90°
2026-04-30 10:22 6.99413 160.39416 26506 ft 459 kts 90°
2026-04-30 10:22 6.99425 160.42628 26729 ft 459 kts 90°
2026-04-30 10:22 6.99436 160.45842 26925 ft 460 kts 90°
2026-04-30 10:23 6.99447 160.49074 27087 ft 462 kts 90°
2026-04-30 10:23 6.99458 160.52321 27325 ft 463 kts 90°
2026-04-30 10:23 6.99469 160.55569 27480 ft 465 kts 90°
2026-04-30 10:23 6.99479 160.58831 27743 ft 465 kts 90°
2026-04-30 10:24 6.99489 160.62090 27939 ft 467 kts 90°
2026-04-30 10:24 6.99499 160.65326 28104 ft 469 kts 90°
2026-04-30 10:24 6.99510 160.68646 28360 ft 469 kts 90°
2026-04-30 10:24 6.99519 160.71899 28522 ft 471 kts 90°
2026-04-30 10:25 6.99528 160.75199 28758 ft 472 kts 90°
2026-04-30 10:25 6.99537 160.78511 28918 ft 474 kts 90°
2026-04-30 10:25 6.99547 160.81834 29131 ft 475 kts 90°
2026-04-30 10:25 6.99555 160.85160 29346 ft 476 kts 90°
2026-04-30 10:26 6.99564 160.88504 29512 ft 478 kts 90°
2026-04-30 10:26 6.99573 160.91855 29782 ft 478 kts 90°
2026-04-30 10:26 6.99581 160.95218 29937 ft 481 kts 90°
2026-04-30 10:26 6.99589 160.98582 30138 ft 481 kts 90°
2026-04-30 10:27 6.99596 161.01958 30299 ft 483 kts 90°
2026-04-30 10:27 6.99604 161.05347 30468 ft 485 kts 90°
2026-04-30 10:27 6.99612 161.08737 30674 ft 485 kts 90°
2026-04-30 10:27 6.99619 161.12146 30828 ft 487 kts 90°
2026-04-30 10:28 6.99626 161.15556 31046 ft 488 kts 90°
2026-04-30 10:28 6.99632 161.18986 31196 ft 490 kts 90°
2026-04-30 10:28 6.99639 161.22414 31397 ft 490 kts 90°
2026-04-30 10:28 6.99645 161.25807 31556 ft 492 kts 90°
2026-04-30 10:29 6.99651 161.29264 31707 ft 493 kts 90°
2026-04-30 10:29 6.99657 161.32713 31895 ft 494 kts 90°
2026-04-30 10:29 6.99662 161.36180 32023 ft 496 kts 90°
2026-04-30 10:29 6.99667 161.39648 32201 ft 496 kts 90°
2026-04-30 10:30 6.99672 161.43133 32339 ft 498 kts 90°
2026-04-30 10:30 6.99677 161.46620 32511 ft 498 kts 90°
2026-04-30 10:30 6.99682 161.50111 32654 ft 500 kts 90°
2026-04-30 10:30 6.99686 161.53620 32841 ft 499 kts 91°
2026-04-30 10:31 6.99690 161.57104 33107 ft 498 kts 90°
2026-04-30 10:31 6.99694 161.60597 33266 ft 498 kts 90°
2026-04-30 10:31 6.99697 161.64030 33556 ft 496 kts 90°
2026-04-30 10:31 6.99701 161.67513 33741 ft 497 kts 90°
2026-04-30 10:32 6.99704 161.70988 34004 ft 495 kts 90°
2026-04-30 10:32 6.99707 161.74465 34174 ft 496 kts 90°
2026-04-30 10:32 6.99709 161.77944 34393 ft 496 kts 90°
2026-04-30 10:32 6.99711 161.81407 34648 ft 494 kts 90°
2026-04-30 10:33 6.99713 161.84878 34822 ft 495 kts 90°
2026-04-30 10:33 6.99715 161.88334 35121 ft 493 kts 90°
2026-04-30 10:33 6.99717 161.91788 35292 ft 494 kts 90°
2026-04-30 10:33 6.99718 161.95242 35584 ft 492 kts 90°
2026-04-30 10:34 6.99719 161.98693 35768 ft 494 kts 90°
2026-04-30 10:34 6.99719 162.02099 36006 ft 493 kts 90°
2026-04-30 10:34 6.99720 162.05550 36265 ft 492 kts 90°
2026-04-30 10:34 6.99720 162.09001 36460 ft 493 kts 90°
2026-04-30 10:35 6.99720 162.12442 36759 ft 491 kts 90°
2026-04-30 10:35 6.99719 162.15882 36961 ft 492 kts 90°
2026-04-30 10:35 6.99719 162.19323 37237 ft 491 kts 90°
2026-04-30 10:35 6.99718 162.22764 37442 ft 492 kts 90°
2026-04-30 10:36 6.99717 162.26200 37688 ft 491 kts 90°
2026-04-30 10:36 6.99715 162.29649 37771 ft 495 kts 90°
2026-04-30 10:36 6.99714 162.33122 37921 ft 496 kts 90°
2026-04-30 10:36 6.99712 162.36595 38189 ft 495 kts 90°
2026-04-30 10:37 6.99710 162.40056 38450 ft 494 kts 90°
2026-04-30 10:37 6.99707 162.43513 38667 ft 494 kts 90°
2026-04-30 10:37 6.99705 162.46967 38865 ft 493 kts 90°
2026-04-30 10:37 6.99702 162.50417 39076 ft 493 kts 90°
2026-04-30 10:38 6.99699 162.53863 39282 ft 492 kts 90°
2026-04-30 10:38 6.99695 162.57308 39481 ft 491 kts 90°
2026-04-30 10:38 6.99692 162.60699 39668 ft 491 kts 90°
2026-04-30 10:38 6.99688 162.64146 39772 ft 493 kts 90°
2026-04-30 10:39 6.99680 162.71063 40064 ft 493 kts 90°
2026-04-30 10:39 6.99675 162.74514 40247 ft 492 kts 90°
2026-04-30 10:39 6.99670 162.77959 40423 ft 492 kts 90°
2026-04-30 10:40 6.99665 162.81401 40597 ft 491 kts 90°
2026-04-30 10:40 6.99660 162.84843 40728 ft 491 kts 90°
2026-04-30 10:40 6.99654 162.88288 40870 ft 491 kts 90°
2026-04-30 10:40 6.99648 162.91727 40910 ft 491 kts 90°
2026-04-30 10:41 6.99636 162.98592 40904 ft 491 kts 91°
2026-04-30 10:41 6.99623 163.05470 40907 ft 492 kts 91°
2026-04-30 10:42 6.99608 163.12358 40905 ft 492 kts 91°
2026-04-30 10:42 6.99593 163.19249 40902 ft 492 kts 91°
2026-04-30 10:43 6.99576 163.26099 40906 ft 492 kts 90°
2026-04-30 10:43 6.99560 163.32989 40907 ft 492 kts 91°
2026-04-30 10:44 6.99541 163.39880 40904 ft 493 kts 91°
2026-04-30 10:44 6.99522 163.46780 40904 ft 493 kts 91°
2026-04-30 10:45 6.99501 163.53683 40904 ft 493 kts 91°
2026-04-30 10:45 6.99478 163.60596 40905 ft 493 kts 91°
2026-04-30 10:46 6.99456 163.67461 40904 ft 493 kts 92°
2026-04-30 10:46 6.99433 163.74379 40902 ft 494 kts 91°
2026-04-30 10:47 6.99409 163.81291 40909 ft 494 kts 91°
2026-04-30 10:47 6.99384 163.88212 40909 ft 494 kts 92°
2026-04-30 10:48 6.99357 163.95137 40902 ft 494 kts 91°
2026-04-30 10:48 6.99329 164.02057 40906 ft 494 kts 91°
2026-04-30 10:49 6.99301 164.08976 40904 ft 493 kts 91°
2026-04-30 10:49 6.99271 164.15887 40906 ft 493 kts 92°
2026-04-30 10:50 6.99240 164.22759 40909 ft 493 kts 92°
2026-04-30 10:50 6.99209 164.29667 40903 ft 493 kts 91°
2026-04-30 10:51 6.99182 164.35412 40908 ft 493 kts 92°
2026-04-30 10:51 6.99149 164.42313 40909 ft 492 kts 92°
2026-04-30 10:52 6.99115 164.49204 40909 ft 492 kts 92°
2026-04-30 10:52 6.99080 164.56096 40909 ft 492 kts 92°
2026-04-30 10:53 6.99043 164.62993 40908 ft 492 kts 91°
2026-04-30 10:53 6.99005 164.69896 40912 ft 492 kts 91°
2026-04-30 10:54 6.98968 164.76777 40908 ft 491 kts 92°
2026-04-30 10:54 6.98929 164.83606 40906 ft 490 kts 92°
2026-04-30 10:55 6.98888 164.90471 40904 ft 490 kts 92°
2026-04-30 10:55 6.98847 164.97335 40905 ft 490 kts 92°
2026-04-30 10:56 6.98805 165.04208 40911 ft 490 kts 92°
2026-04-30 10:56 6.98761 165.11036 40911 ft 492 kts 91°
2026-04-30 10:57 6.98717 165.17930 40910 ft 493 kts 91°
2026-04-30 10:57 6.98672 165.24834 40904 ft 493 kts 92°
2026-04-30 10:58 6.98665 165.25964 40906 ft 493 kts 91°